Here is the Quick Look data you requested

The Data originates at the National Weather Service, and is made available here by the UAlbany Department of Atmospheric and Environmental Sciences

Surface Observations

KNHK 220352Z AUTO 29004KT 10SM CLR 11/10 A3006 RMK AO2 SLP180 T01110100 $=
KNHK 220452Z AUTO 27004KT 10SM OVC080 12/11 A3006 RMK AO2 SLP179 T01220111
 401830106 $
KNHK 220452Z AUTO 27004KT 10SM OVC080 12/11 A3006 RMK AO2 SLP179 T01220111
 401830106 $=
KNHK 220552Z AUTO 30006KT 10SM SCT075 13/11 A3005 RMK AO2 SLP175 T01280111
 10139 20106 58006 $
KNHK 220552Z AUTO 30006KT 10SM SCT075 13/11 A3005 RMK AO2 SLP175 T01280111
 10139 20106 58006 $=
KNHK 220652Z AUTO 32011KT 10SM OVC075 14/11 A3004 RMK AO2 SLP172 T01440111 $
KNHK 220652Z AUTO 32011KT 10SM OVC075 14/11 A3004 RMK AO2 SLP172 T01440111 $=
KNHK 220752Z AUTO 32010KT 10SM CLR 14/11 A3003 RMK AO2 SLP170 T01390106 $
KNHK 220752Z AUTO 32010KT 10SM CLR 14/11 A3003 RMK AO2 SLP170 T01390106 $=
KNHK 220852Z AUTO 33012KT 10SM FEW080 14/09 A3006 RMK AO2 SLP178 T01390094
 53003 $
KNHK 220852Z AUTO 33012KT 10SM FEW080 14/09 A3006 RMK AO2 SLP178 T01390094
 53003 $=
KNHK 220952Z 33014KT 10SM SCT080 BKN180 14/09 A3005 RMK AO2 SLP177 T01390094 $
KNHK 220952Z 33014KT 10SM SCT080 BKN180 14/09 A3005 RMK AO2 SLP177 T01390094 $=
KNHK 221052Z 32012KT 10SM BKN070 BKN180 14/09 A3008 RMK AO2 SLP185 T01390094 $
KNHK 221052Z 32012KT 10SM BKN070 BKN180 14/09 A3008 RMK AO2 SLP185 T01390094 $=
KNHK 221152Z 33010KT 10SM BKN065 BKN080 BKN180 14/09 A3010 RMK AO2 SLP192
 T01390094 10144 20128 53014
KNHK 221152Z 33010KT 10SM BKN065 BKN080 BKN180 14/09 A3010 RMK AO2 SLP192
 T01390094 10144 20128 53014=
KNHK 221252Z 31011KT 10SM BKN080 BKN180 14/10 A3010 RMK AO2 SLP193 T01440100
KNHK 221252Z 31011KT 10SM BKN080 BKN180 14/10 A3010 RMK AO2 SLP193 T01440100=
KNHK 221352Z 31014KT 10SM FEW025 FEW080 BKN280 16/11 A3010 RMK AO2 SLP193
 T01610106
KNHK 221352Z 31014KT 10SM FEW025 FEW080 BKN280 16/11 A3010 RMK AO2 SLP193
 T01610106=
KNHK 221452Z 31011KT 10SM FEW026 SCT070 BKN280 18/12 A3011 RMK AO2 SLP195
 T01830117 53004
KNHK 221452Z 31011KT 10SM FEW026 SCT070 BKN280 18/12 A3011 RMK AO2 SLP195
 T01830117 53004=
KNHK 221552Z 31013KT 10SM SCT035 BKN080 BKN280 19/12 A3011 RMK AO2 SLP196
 T01890117
KNHK 221552Z 31013KT 10SM SCT035 BKN080 BKN280 19/12 A3011 RMK AO2 SLP196
 T01890117=
KNHK 221652Z 31013KT 10SM SCT040 BKN080 21/12 A3009 RMK AO2 SLP191 T02060117
KNHK 221652Z 31013KT 10SM SCT040 BKN080 21/12 A3009 RMK AO2 SLP191 T02060117=
KNHK 221752Z 31015KT 10SM SCT055 BKN080 21/11 A3008 RMK AO2 SLP186 T02060111
 10206 20139 58009 $
KNHK 221752Z 31015KT 10SM SCT055 BKN080 21/11 A3008 RMK AO2 SLP186 T02060111
 10206 20139 58009 $=
KNHK 221852Z 32014KT 10SM CLR 22/11 A3006 RMK AO2 CIG 047 RY24 SLP180 T02170106
 $
KNHK 221852Z 32014KT 10SM CLR 22/11 A3006 RMK AO2 CIG 047 RY24 SLP180 T02170106
 $=
KNHK 221852Z COR 32014KT 10SM FEW050 FEW080 SCT260 22/11 A3006 RMK AO2 CIG 047
 RY24 SLP180 T02170106 $
KNHK 221852Z COR 32014KT 10SM FEW050 FEW080 SCT260 22/11 A3006 RMK AO2 CIG 047
 RY24 SLP180 T02170106 $=
KNHK 221952Z 33010KT 10SM FEW055 22/11 A3004 RMK AO2 SLP173 T02220106
KNHK 221952Z COR 33010KT 10SM FEW055 FEW090 SCT260 22/11 A3004 RMK AO2 SLP173
 T02220106
KNHK 221952Z 33010KT 10SM FEW055 22/11 A3004 RMK AO2 SLP173 T02220106=
KNHK 221952Z COR 33010KT 10SM FEW055 FEW090 SCT260 22/11 A3004 RMK AO2 SLP173
 T02220106=
KNHK 221952Z 33010KT 10SM FEW055 22/11 A3004 RMK AO2 SLP173 T02220106=
KNHK 221952Z COR 33010KT 10SM FEW055 FEW090 SCT260 22/11 A3004 RMK AO2 SLP173
 T02220106=
KNHK 221952Z 33010KT 10SM FEW055 22/11 A3004 RMK AO2 SLP173 T02220106=
KNHK 221952Z COR 33010KT 10SM FEW055 FEW090 SCT260 22/11 A3004 RMK AO2 SLP173
 T02220106=
KNHK 221952Z 33010KT 10SM FEW055 22/11 A3004 RMK AO2 SLP173 T02220106=
KNHK 221952Z COR 33010KT 10SM FEW055 FEW090 SCT260 22/11 A3004 RMK AO2 SLP173
 T02220106=
KNHK 221952Z 33010KT 10SM FEW055 22/11 A3004 RMK AO2 SLP173 T02220106=
KNHK 221952Z COR 33010KT 10SM FEW055 FEW090 SCT260 22/11 A3004 RMK AO2 SLP173
 T02220106=
KNHK 221952Z 33010KT 10SM FEW055 22/11 A3004 RMK AO2 SLP173 T02220106=
KNHK 221952Z COR 33010KT 10SM FEW055 FEW090 SCT260 22/11 A3004 RMK AO2 SLP173
 T02220106=
KNHK 222052Z 33007KT 10SM FEW055 FEW090 SCT260 22/11 A3003 RMK AO2 SLP169
 T02220106 56017
KNHK 222052Z 33007KT 10SM FEW055 FEW090 SCT260 22/11 A3003 RMK AO2 SLP169
 T02220106 56017=
KNHK 222152Z 30009KT 10SM FEW060 FEW100 SCT260 21/11 A3004 RMK AO2 SLP171
 T02110106
KNHK 222152Z 30009KT 10SM FEW060 FEW100 SCT260 21/11 A3004 RMK AO2 SLP171
 T02110106=
KNHK 222252Z 30009KT 10SM FEW060 FEW100 BKN260 21/10 A3004 RMK AO2 SLP172
 T02060100
KNHK 222252Z 30009KT 10SM FEW060 FEW100 BKN260 21/10 A3004 RMK AO2 SLP172
 T02060100=
KNHK 222352Z 30006KT 10SM FEW060 FEW100 SCT260 19/11 A3005 RMK AO2 SLP176
 T01890106 10228 20189 53007
KNHK 222352Z 30006KT 10SM FEW060 FEW100 SCT260 19/11 A3005 RMK AO2 SLP176
 T01890106 10228 20189 53007=
KNHK 230052Z 25005KT 10SM FEW110 FEW260 16/11 A3006 RMK AO2 SLP179 T01560111
KNHK 230052Z 25005KT 10SM FEW110 FEW260 16/11 A3006 RMK AO2 SLP179 T01560111=
KNHK 230152Z 00000KT 10SM FEW065 FEW110 SCT260 14/11 A3007 RMK AO2 SLP184
 T01390111
KNHK 230152Z 00000KT 10SM FEW065 FEW110 SCT260 14/11 A3007 RMK AO2 SLP184
 T01390111=
KNHK 230252Z 26003KT 10SM FEW065 FEW110 SCT260 13/11 A3007 RMK AO2 SLP184
 T01280111 51008
KNHK 230252Z 26003KT 10SM FEW065 FEW110 SCT260 13/11 A3007 RMK AO2 SLP184
 T01280111 51008=
KNHK 230352Z AUTO 24006KT 10SM CLR 12/12 A3008 RMK AO2 SLP184 T01220117
KNHK 230352Z AUTO 24006KT 10SM CLR 12/12 A3008 RMK AO2 SLP184 T01220117=
KNHK 230452Z AUTO 24005KT 10SM CLR 12/11 A3007 RMK AO2 SLP184 T01170111
 402280111
KNHK 230452Z AUTO 24005KT 10SM CLR 12/11 A3007 RMK AO2 SLP184 T01170111
 402280111=
KNHK 230552Z AUTO 23004KT 10SM CLR 11/10 A3007 RMK AO2 SLP182 T01060100 10189
 20106 58002
KNHK 230552Z AUTO 23004KT 10SM CLR 11/10 A3007 RMK AO2 SLP182 T01060100 10189
 20106 58002=
KNHK 230652Z AUTO 26007KT 10SM CLR 12/11 A3005 RMK AO2 SLP176 T01220111
KNHK 230652Z AUTO 26007KT 10SM CLR 12/11 A3005 RMK AO2 SLP176 T01220111=
KNHK 230752Z AUTO 26004KT 10SM CLR 12/11 A3005 RMK AO2 SLP175 T01220111
KNHK 230752Z AUTO 26004KT 10SM CLR 12/11 A3005 RMK AO2 SLP175 T01220111=
KNHK 230852Z AUTO 26006KT 10SM CLR 12/11 A3004 RMK AO2 SLP172 T01220106 56009
KNHK 230852Z AUTO 26006KT 10SM CLR 12/11 A3004 RMK AO2 SLP172 T01220106 56009=
KNHK 230952Z 26004KT 10SM CLR 12/11 A3005 RMK AO2 SLP174 T01220106
KNHK 230952Z 26004KT 10SM CLR 12/11 A3005 RMK AO2 SLP174 T01220106=
KNHK 231052Z 27006KT 10SM FEW050 12/11 A3006 RMK AO2 SLP178 T01220106 $